Location: Park Creek Village Mobile Home Park
(38.2885°N, 122.4714°W)
Time: 16:53:14
(UTC+00:00)

CZ-4C R/B - Pass Details

Date: 14 December 2019
Orbit: 646 x 1356 km, 63.4° (Epoch: 27 January)

Event Time Altitude Azimuth Distance (km) Brightness Sun altitude
Exits shadow 13:02:51 32° 231° (SW) 2,085 3.8 -25.8°
Drops below altitude 10° 13:08:48 10° 188° (S) 3,389 5.3 -24.7°
Sets 13:12:03 0° 180° (S) 4,368 6.0 -24.1°
